Location: D�derode
(51.8092°N, 10.1065°E)
Time: 05:24:44
(UTC+00:00)

Cosmos 44 Rocket - Pass Details

Date: 01 December 2020
Orbit: 639 x 751 km, 65.1° (Epoch: 23 January)

Event Time Altitude Azimuth Distance (km) Brightness Sun altitude
Rises 17:34:44 0° 317° (NW) 3,162 7.2 -21.0°
Reaches altitude 10° 17:37:05 10° 316° (NW) 2,250 6.4 -21.4°
Maximum altitude 17:42:15 79° 231° (SW) 767 3.5 -22.1°
Enters shadow 17:45:10 27° 148° (SSE) 1,423 4.6 -22.6°
